Weather History for Wheaton NDB, MN

Change the Weather History Date:

Wednesday, April 9, 2014

  Actual Average Record
Temperature  
Mean Temperature 60 °F -  
Max Temperature 80 °F 52 °F 89 °F (1977)
Min Temperature 41 °F 30 °F 10 °F (1997)
Degree Days  
Heating Degree Days 4    
Growing Degree Days 10 (Base 50)    
Moisture  
Dew Point 39 °F    
Average Humidity 52    
Maximum Humidity 76    
Minimum Humidity 26    
Precipitation  
Precipitation 0.00 in - - ()
Sea Level Pressure  
Sea Level Pressure 29.65 in    
Wind  
Wind Speed 13 mph (SW)    
Max Wind Speed 23 mph    
Max Gust Speed 33 mph    
Visibility 10 miles    
Events      
Averages and records for this station are not official NWS values.
T = Trace of Precipitation, MM = Missing Value Source: NWS Daily Summary

Daily Weather History Graph

Daily Weather History Graph

Search for Another Location

Airport:

Trip Planner

Search our weather history database for the weather conditions in past years. The results will help you decide how hot, cold, wet, or windy it might be!

Date:

Astronomy

Apr. 09, 2014 Rise Set
Actual Time 6:51 AM CDT 8:05 PM CDT
Civil Twilight 6:20 AM CDT 8:35 PM CDT
Nautical Twilight 5:43 AM CDT 9:12 PM CDT
Astronomical Twilight 5:04 AM CDT 9:52 PM CDT
Moon 2:39 PM CDT (4/9) 3:56 AM CDT (4/9)
Length of Visible Light 14h 15m
Length of Day
13h 13m
Waxing Gibbous, 72% of the Moon is Illuminated
Apr 9
Waxing Gibbous
Apr 15
Full
Apr 22
Last Quarter
Apr 29
New
May 6
First Quarter

Hourly Weather History & Observations

Time (CDT) Temp. Windchill Dew Point Humidity Pressure Visibility Wind Dir Wind Speed Gust Speed Precip Events Conditions
12:14 AM 42.8 °F 35.4 °F 33.8 °F 70% 29.89 in 10.0 mi SSE 15.0 mph - N/A   Clear
12:34 AM 41.0 °F 33.5 °F 33.8 °F 76% 29.88 in 10.0 mi SSE 13.8 mph - N/A   Clear
12:54 AM 41.0 °F 32.8 °F 33.8 °F 76% 29.87 in 10.0 mi SSE 16.1 mph - N/A   Clear
1:14 AM 41.0 °F 33.1 °F 33.8 °F 76% 29.87 in 10.0 mi SSE 15.0 mph - N/A   Mostly Cloudy
1:34 AM 41.0 °F 33.9 °F 33.8 °F 76% 29.86 in 10.0 mi SSE 12.7 mph - N/A   Overcast
1:55 AM 42.8 °F 35.4 °F 33.8 °F 70% 29.85 in 10.0 mi SSE 15.0 mph 20.7 mph N/A   Overcast
2:14 AM 42.8 °F 35.1 °F 32.0 °F 66% 29.84 in 10.0 mi SSE 16.1 mph 21.9 mph N/A   Overcast
2:34 AM 42.8 °F 35.4 °F 33.8 °F 70% 29.82 in 10.0 mi SSE 15.0 mph - N/A   Overcast
2:54 AM 42.8 °F 37.0 °F 33.8 °F 70% 29.82 in 10.0 mi SSE 10.4 mph - N/A   Overcast
3:15 AM 42.8 °F 36.6 °F 32.0 °F 66% 29.81 in 10.0 mi South 11.5 mph 16.1 mph N/A   Scattered Clouds
3:35 AM 41.0 °F 34.3 °F 32.0 °F 70% 29.80 in 10.0 mi South 11.5 mph - N/A   Clear
3:54 AM 41.0 °F 33.9 °F 32.0 °F 70% 29.78 in 10.0 mi South 12.7 mph - N/A   Clear
4:14 AM 41.0 °F 34.3 °F 32.0 °F 70% 29.77 in 10.0 mi South 11.5 mph 17.3 mph N/A   Clear
4:34 AM 41.0 °F 34.3 °F 30.2 °F 65% 29.76 in 10.0 mi South 11.5 mph - N/A   Clear
4:54 AM 41.0 °F 34.3 °F 30.2 °F 65% 29.75 in 10.0 mi South 11.5 mph - N/A   Clear
5:15 AM 42.8 °F 36.6 °F 30.2 °F 61% 29.74 in 10.0 mi South 11.5 mph - N/A   Clear
5:35 AM 42.8 °F 37.0 °F 30.2 °F 61% 29.73 in 10.0 mi South 10.4 mph - N/A   Clear
5:55 AM 42.8 °F 37.5 °F 30.2 °F 61% 29.72 in 10.0 mi South 9.2 mph - N/A   Clear
6:15 AM 42.8 °F 38.6 °F 30.2 °F 61% 29.71 in 10.0 mi South 6.9 mph - N/A   Clear
6:35 AM 42.8 °F 37.5 °F 30.2 °F 61% 29.71 in 10.0 mi South 9.2 mph - N/A   Clear
6:54 AM 42.8 °F 39.3 °F 30.2 °F 61% 29.70 in 10.0 mi SSE 5.8 mph - N/A   Clear
7:14 AM 42.8 °F 38.0 °F 30.2 °F 61% 29.69 in 10.0 mi South 8.1 mph - N/A   Clear
7:35 AM 42.8 °F 38.0 °F 32.0 °F 66% 29.69 in 10.0 mi South 8.1 mph - N/A   Clear
7:54 AM 44.6 °F 40.2 °F 33.8 °F 66% 29.68 in 10.0 mi South 8.1 mph - N/A   Clear
8:15 AM 46.4 °F 43.5 °F 33.8 °F 62% 29.68 in 10.0 mi South 5.8 mph - N/A   Clear
8:34 AM 46.4 °F 42.9 °F 35.6 °F 66% 29.68 in 10.0 mi South 6.9 mph - N/A   Clear
8:54 AM 48.2 °F - 37.4 °F 66% 29.67 in 10.0 mi South 8.1 mph - N/A   Clear
9:15 AM 51.8 °F - 37.4 °F 58% 29.66 in 10.0 mi SSW 8.1 mph - N/A   Clear
9:35 AM 53.6 °F - 37.4 °F 54% 29.65 in 10.0 mi SSW 9.2 mph - N/A   Clear
9:54 AM 55.4 °F - 39.2 °F 54% 29.64 in 10.0 mi SSW 8.1 mph - N/A   Clear
10:14 AM 57.2 °F - 39.2 °F 51% 29.64 in 10.0 mi SW 8.1 mph - N/A   Clear
10:54 AM 60.8 °F - 39.2 °F 45% 29.63 in 10.0 mi SW 9.2 mph - N/A   Clear
11:15 AM 62.6 °F - 41.0 °F 45% 29.63 in 10.0 mi SW 11.5 mph - N/A   Clear
11:35 AM 64.4 °F - 42.8 °F 45% 29.62 in 10.0 mi SW 12.7 mph - N/A   Clear
11:55 AM 66.2 °F - 42.8 °F 43% 29.61 in 10.0 mi SW 13.8 mph - N/A   Clear
12:14 PM 66.2 °F - 42.8 °F 43% 29.60 in 10.0 mi SSW 13.8 mph - N/A   Clear
12:34 PM 68.0 °F - 44.6 °F 43% 29.59 in 10.0 mi SSW 12.7 mph 18.4 mph N/A   Clear
12:54 PM 69.8 °F - 44.6 °F 40% 29.58 in 10.0 mi SW 12.7 mph 16.1 mph N/A   Clear
1:14 PM 71.6 °F - 44.6 °F 38% 29.58 in 10.0 mi WSW 11.5 mph - N/A   Clear
1:34 PM 73.4 °F - 44.6 °F 36% 29.57 in 10.0 mi SW 11.5 mph 16.1 mph N/A   Clear
1:54 PM 75.2 °F - 46.4 °F 36% 29.56 in 10.0 mi SW 10.4 mph 16.1 mph N/A   Clear
2:14 PM 75.2 °F - 44.6 °F 34% 29.55 in 10.0 mi WSW 13.8 mph - N/A   Clear
2:34 PM 75.2 °F - 44.6 °F 34% 29.55 in 10.0 mi WSW 10.4 mph - N/A   Clear
2:54 PM 78.8 °F - 44.6 °F 30% 29.54 in 10.0 mi West 12.7 mph 18.4 mph N/A   Clear
3:14 PM 78.8 °F - 44.6 °F 30% 29.53 in 10.0 mi WSW 17.3 mph 21.9 mph N/A   Clear
3:35 PM 80.6 °F - 44.6 °F 28% 29.52 in 10.0 mi SW 17.3 mph - N/A   Clear
3:54 PM 78.8 °F - 44.6 °F 30% 29.51 in 10.0 mi SW 15.0 mph 20.7 mph N/A   Clear
4:14 PM 80.6 °F - 44.6 °F 28% 29.50 in 10.0 mi SW 17.3 mph - N/A   Clear
4:34 PM 80.6 °F - 44.6 °F 28% 29.49 in 10.0 mi SW 15.0 mph 23.0 mph N/A   Clear
4:54 PM 80.6 °F - 44.6 °F 28% 29.48 in 10.0 mi SW 15.0 mph - N/A   Clear
5:14 PM 80.6 °F - 42.8 °F 26% 29.48 in 10.0 mi WSW 15.0 mph 23.0 mph N/A   Clear
5:34 PM 77.0 °F - 42.8 °F 29% 29.48 in 10.0 mi WSW 12.7 mph - N/A   Clear
5:55 PM 78.8 °F - 42.8 °F 28% 29.47 in 10.0 mi WSW 11.5 mph 18.4 mph N/A   Clear
6:15 PM 78.8 °F - 42.8 °F 28% 29.47 in 10.0 mi West 9.2 mph - N/A   Clear
6:34 PM 77.0 °F - 42.8 °F 29% 29.47 in 10.0 mi West 8.1 mph 16.1 mph N/A   Clear
6:54 PM 75.2 °F - 44.6 °F 34% 29.47 in 10.0 mi WSW 9.2 mph - N/A   Scattered Clouds
7:14 PM 73.4 °F - 46.4 °F 38% 29.47 in 10.0 mi WSW 5.8 mph - N/A   Scattered Clouds
7:34 PM 71.6 °F - 44.6 °F 38% 29.48 in 10.0 mi West 9.2 mph - N/A   Scattered Clouds
7:54 PM 69.8 °F - 44.6 °F 40% 29.50 in 10.0 mi WNW 13.8 mph 17.3 mph N/A   Clear
8:15 PM 69.8 °F - 42.8 °F 38% 29.52 in 10.0 mi WNW 18.4 mph 24.2 mph N/A   Clear
8:35 PM 66.2 °F - 44.6 °F 46% 29.53 in 10.0 mi WNW 15.0 mph - N/A   Clear
8:55 PM 64.4 °F - 44.6 °F 49% 29.55 in 10.0 mi NW 20.7 mph 26.5 mph N/A   Clear
9:14 PM 62.6 °F - 44.6 °F 52% 29.59 in 10.0 mi NW 20.7 mph 29.9 mph N/A   Scattered Clouds
9:35 PM 60.8 °F - 44.6 °F 55% 29.63 in 10.0 mi NW 16.1 mph 31.1 mph N/A   Mostly Cloudy
9:54 PM 57.2 °F - 44.6 °F 63% 29.65 in 10.0 mi NW 11.5 mph - N/A   Mostly Cloudy
10:14 PM 57.2 °F - 42.8 °F 59% 29.67 in 10.0 mi NW 23.0 mph 33.4 mph N/A   Mostly Cloudy
10:34 PM 55.4 °F - 39.2 °F 54% 29.69 in 10.0 mi NW 20.7 mph 29.9 mph N/A   Mostly Cloudy
10:54 PM 53.6 °F - 41.0 °F 62% 29.69 in 10.0 mi NW 13.8 mph 19.6 mph N/A   Scattered Clouds
11:14 PM 53.6 °F - 41.0 °F 62% 29.70 in 10.0 mi NW 12.7 mph 20.7 mph N/A   Scattered Clouds
11:35 PM 51.8 °F - 41.0 °F 67% 29.72 in 10.0 mi WNW 11.5 mph - N/A   Clear
11:54 PM 51.8 °F - 41.0 °F 67% 29.71 in 10.0 mi WNW 11.5 mph - N/A   Clear